THORAD DELTA 1 DEB, 42612

Orbit data source: Space-Track

THORAD DELTA 1 DEB, 42612 is space debris in SSO originally from a launch on Fri, 15 Nov 1974 UTC launched from the Air Force Western Test Range (AFWTR). Debris objects in space refer to the collection of defunct objects orbiting the Earth. Examples of debris include non-operational satellites, rocket bodies, and fragments generated from explosions, collisions, or faulty payload assembly.

Loading next visibility...
Identifier
42612, 1974-089GD
Orbit
SSO
Country
Flag of USUS
Related business
Manufacturer
Unknown
Mission
Spacecraft
Bus & Motor
Unknown
Mass
Unknown
Launch date (UTC)
1974-11-15 (51 years ago)
Launch vehicle
Unknown
Launch site
Air Force Western Test Range (AFWTR)
Object type
Payload
Rocket body
Debris
Shape & HBR
Unknown shape, 0.1 m
Radar Cross Section
Small (<0.1 m²)

Expand to show TLE details & history
Last TLE update: 4 days ago

TLE from 4 days ago
0 THORAD DELTA 1 DEB
1 42612U 74089GD  25285.69315115  .00000038  00000-0  41777-3 0  9996
2 42612 101.6050 278.2592 0083749 183.4662 176.5849 12.69847550531248
Epoch: 2025-10-12T16:38Z
TLE epoch observation values (Epoch: 2025-10-12T16:38:08.259Z)
Latitude
0.00001°
Longitude
7.21816°
Altitude
1,450.059 km
Speed
7.107 km/s
True Right ascension
18h 33m 02s
True Declination
0° 00' 00"
Sunlit
Object was in daylight at epoch
Visualization orbit readout
Latitude
Unknown
Longitude
Unknown
Altitude
Unknown
Speed
Unknown
Apparent Right ascension
Unknown
Apparent Declination
Unknown
Sunlit
N/A
Visualization observer readout
Local Sidereal Time
07:55:08
Azimuth
Unknown
Elevation
Unknown
Doppler factor
Unknown
Orbital elements
Apogee altitude
1,445.047 km
Perigee altitude
1,315.099 km
Semi-major axis
7,758.21 km
Eccentricity
0.00837
Inclination
101.605°
RAAN
278.2592°
Arg. of periapsis
183.4662°
True anomaly
176.64148°
Mean anomaly
176.5849°
Eccentric anomaly
176.61325°
Mean motion
3.17615 °/min
Orbital period
113.34 mins
BSTAR
0.00041777
Loading maneuver chart data...
Computing Atmospheric mass density...

Documentation

Showing up to 5 results
|